Location: Kalberh�ni
(46.4610°N, 7.2453°E)
Time: 07:18:49
(UTC+00:00)

FALCON 9 DEB - Pass Details

Date: 27 October 2021
Orbit: 344 x 354 km, 53.0° (Epoch: 30 November)

Event Time Altitude Azimuth Distance (km) Brightness Sun altitude
Rises 18:02:28 0° 233° (SW) 2,164 7.6 -17.6°
Reaches altitude 10° 18:04:28 10° 232° (SW) 1,328 6.3 -17.9°
Enters shadow 18:07:19 71° 167° (SSE) 384 2.7 -18.4°
